Phoenix, AZ

3:02 PM MST on February 19, 2017 (GMT -0700)
Phoenix-Deer Valley Municipal

Weather History for KDVT - December, 2012

Change the Weather History Date:

Tuesday, December 18, 2012

  Actual Average Record
Temperature  
Mean Temperature 51 °F -  
Max Temperature 59 °F 61 °F 73 °F (2013)
Min Temperature 43 °F 41 °F 30 °F (1996)
Degree Days  
Heating Degree Days 14    
Growing Degree Days 1 (Base 50)    
Moisture  
Dew Point 42 °F    
Average Humidity 70    
Maximum Humidity 94    
Minimum Humidity 49    
Precipitation  
Precipitation 0.17 in - - ()
Sea Level Pressure  
Sea Level Pressure 29.81 in    
Wind  
Wind Speed 6 mph (SSE)    
Max Wind Speed 10 mph    
Max Gust Speed -    
Visibility 8 miles    
Events Rain    
Averages and records for this station are not official NWS values.
T = Trace of Precipitation, MM = Missing Value Source: NWS Daily Summary

Daily Weather History Graph

Daily Weather History Graph

Search for Another Location

Airport or City:

Trip Planner

Search our weather history database for the weather conditions in past years. The results will help you decide how hot, cold, wet, or windy it might be!

Date:

Astronomy

Dec. 18, 2012 Rise Set
Actual Time 7:27 AM MST 5:22 PM MST
Civil Twilight 7:00 AM MST 5:50 PM MST
Nautical Twilight 6:28 AM MST 6:21 PM MST
Astronomical Twilight 5:58 AM MST 6:52 PM MST
Moon 11:24 AM MST (12/18) 11:35 PM MST (12/18)
Length of Visible Light 10h 50m
Length of Day
9h 55m
Waxing Crescent, 35% of the Moon is Illuminated
Dec 18
Waxing Crescent
Dec 19
First Quarter
Dec 28
Full
Jan 4
Last Quarter
Jan 11
New

Hourly Weather History & Observations

Time (MST) Temp. Windchill Dew Point Humidity Pressure Visibility Wind Dir Wind Speed Gust Speed Precip Events Conditions
12:53 AM 48.0 °F - 37.9 °F 68% 29.96 in 10.0 mi NNE 10.4 mph - N/A   Clear
2:53 AM 46.0 °F 44.8 °F 37.9 °F 73% 29.94 in 10.0 mi NNE 3.5 mph - N/A   Clear
3:53 AM 46.0 °F 42.5 °F 37.0 °F 71% 29.93 in 10.0 mi NNE 6.9 mph - N/A   Clear
4:53 AM 46.0 °F 44.8 °F 37.0 °F 71% 29.90 in 10.0 mi NNE 3.5 mph - N/A   Clear
5:53 AM 43.0 °F - 37.9 °F 82% 29.92 in 10.0 mi Calm Calm - N/A   Clear
6:53 AM 45.0 °F 43.5 °F 37.9 °F 76% 29.91 in 10.0 mi East 3.5 mph - N/A   Clear
7:53 AM 46.0 °F 43.1 °F 37.0 °F 71% 29.91 in 10.0 mi East 5.8 mph - N/A   Clear
8:53 AM 46.9 °F - 39.0 °F 74% 29.93 in 10.0 mi Calm Calm - N/A   Overcast
9:53 AM - - - N/A% 29.93 in - North - - N/A   Unknown
10:53 AM 55.0 °F - 39.9 °F 57% 29.89 in 10.0 mi ESE 5.8 mph - N/A   Partly Cloudy
11:53 AM 55.9 °F - 39.9 °F 55% 29.84 in 10.0 mi ESE 3.5 mph - N/A   Clear
12:53 PM 59.0 °F - 39.9 °F 49% 29.79 in 10.0 mi ESE 6.9 mph - N/A   Clear
1:53 PM 57.9 °F - 39.9 °F 51% 29.78 in 10.0 mi South 4.6 mph - N/A   Overcast
2:53 PM 59.0 °F - 39.9 °F 49% 29.75 in 10.0 mi SE 3.5 mph - N/A   Partly Cloudy
3:53 PM 59.0 °F - 41.0 °F 51% 29.75 in 10.0 mi SSW 3.5 mph - N/A   Overcast
4:53 PM 57.9 °F - 39.9 °F 51% 29.72 in 10.0 mi SSE 3.5 mph - N/A   Clear
5:53 PM 57.0 °F - 43.0 °F 59% 29.72 in 10.0 mi Calm Calm - N/A   Mostly Cloudy
6:53 PM 55.9 °F - 44.1 °F 64% 29.73 in 10.0 mi Calm Calm - N/A   Overcast
7:53 PM 55.9 °F - 43.0 °F 62% 29.71 in 10.0 mi SE 4.6 mph - N/A   Overcast
8:53 PM 55.0 °F - 44.1 °F 67% 29.71 in 10.0 mi Calm Calm - N/A   Overcast
9:53 PM 55.0 °F - 45.0 °F 69% 29.72 in 8.0 mi SSE 4.6 mph - 0.00 in Rain Light Rain
10:53 PM 52.0 °F - 48.0 °F 86% 29.71 in 5.0 mi SSW 10.4 mph - 0.04 in Rain Light Rain
11:19 PM 51.8 °F - 48.2 °F 88% 29.74 in 4.0 mi WSW 10.4 mph - 0.04 in Rain Light Rain
11:24 PM 51.8 °F - 48.2 °F 88% 29.75 in 2.5 mi WNW 10.4 mph - 0.07 in Rain Rain
11:32 PM 50.0 °F - 46.4 °F 87% 29.75 in 2.5 mi WSW 6.9 mph - 0.09 in Rain Rain
11:39 PM 50.0 °F - 48.2 °F 94% 29.75 in 5.0 mi SW 8.1 mph - 0.10 in Rain Light Rain
11:45 PM 51.8 °F - 48.2 °F 88% 29.75 in 3.0 mi SW 9.2 mph - 0.11 in Rain Rain
11:53 PM 51.1 °F - 48.9 °F 92% 29.72 in 3.0 mi WSW 10.4 mph - 0.13 in Rain Rain